Regional Weather Roundup
Issued by NWS Bismarck, ND

Home | Current Version | Previous Version | Text Only | Print | Product List | Glossary On
Versions: 1 2 3 4 5 6 7 8 9 10 11 12 13 14 15 16 17 18 19 20 21 22 23 24 25 26 27 28 29 30 31 32 33 34 35 36 37 38 39 40 41 42 43 44 45 46 47 48 49 50
225
ASUS43 KBIS 190110
RWRBIS

NWR BROADCAST TEXT
NATIONAL WEATHER SERVICE BISMARCK ND
700 PM CST WED JAN 18 2017

NOTE: "FAIR" INDICATES FEW OR NO CLOUDS BELOW 12,000 FEET WITH NO
SIGNIFICANT WEATHER AND/OR OBSTRUCTIONS TO VISIBILITY.


CITY           SKY/WX    TMP DP  RH WIND       PRES   REMARKS
WILLISTON      FAIR      33  26  75 CALM      29.56F
MINOT          FAIR      39  28  64 S15       29.55S
MINOT AFB      NOT AVBL
BISMARCK       FAIR      27  22  81 CALM      29.65F
DICKINSON      FAIR      35  26  69 S14       29.58F
GARRISON         N/A     29  24  82 CALM      29.59S
HETTINGER ARPT FAIR      25  19  78 NW10      29.64S WCI  15
JAMESTOWN      FAIR      27  25  92 S6        29.65S
CARRINGTON     FAIR      32  27  80 S14       29.64S
HAZEN            N/A    N/A N/A N/A NW5       29.62F
MANDAN         FAIR      32  25  74 S14       29.64S
RUGBY            N/A     32  25  74 S7        29.58S
STANLEY        FAIR      34  28  80 S8        29.57F
TIOGA          FAIR      32  28  86 SW9       29.56F
WATFORD CITY   FAIR      32  25  74 SW6       29.58S
$$

CITY           SKY/WX    TMP DP  RH WIND       PRES   REMARKS
GRAND FORKS    FAIR      29  22  75 S12       29.67S WCI  19
GRAND FORKS AF FAIR      27  23  84 S8        29.66F WCI  19
DEVILS LAKE    FAIR      28  25  88 SE6       29.61F
FARGO          FAIR      34  27  75 S12       29.71F
CAVALIER         N/A     30  27  86 S9        29.62F
GRAFTON        FAIR      27  25  93 S14       29.67S WCI  15
GWINNER        FAIR      32  28  86 SW14      29.71F
ROLLA            N/A    N/A N/A N/A MISG        N/A
$$

CITY           SKY/WX    TMP DP  RH WIND       PRES   REMARKS
ABERDEEN       FAIR      25  20  81 S10       29.72F WCI  15
MOBRIDGE       FAIR      24  17  74 SE8       29.65R WCI  15
BUFFALO          N/A     35  23  61 NW14      29.57R
RAPID CITY     FAIR      28  22  78 CALM      29.61F
GLASGOW        FAIR      32  26  78 E10       29.51F
SIDNEY         FAIR      29  24  82 S12       29.57F WCI  19
WOLF POINT     FAIR      30  23  75 E5        29.54F
GLENDIVE       FAIR      31  24  75 S13       29.60S
MILES CITY     FAIR      31  22  69 S12       29.60F
BAKER          FAIR      25  20  81 CALM      29.63F
$$

CITY           SKY/WX    TMP DP  RH WIND       PRES   REMARKS
BILLINGS       MOCLDY    40  23  50 SW14      29.60F
GREAT FALLS    FAIR      41  28  60 SW14      29.53R
REGINA         PTCLDY    36  30  80 S14       29.41F
ESTEVAN        PTCLDY    30  27  86 SW14      29.50F WCI  20
$$





USA.gov is the U.S. government's official web portal to all federal, state and local government web resources and services.